Showing default

UNISAT 6, 40012

Orbit data source: Space-Track

UNISAT 6, 40012 is a payload satellite owned by GAUSS SrI (IT) in SSO that was launched on Thu, 19 Jun 2014 UTC via a DNEPR launch vehicle from the Orenburg, Russia (OREN). Payload-class satellites include a variety of spacecraft equipped with specific instruments for various scientific and technological missions. These include communications satellites like Starlink; space stations such as the ISS; scientific satellites like the Hubble; Earth observation satellites from companies like Planet Labs, Umbra, and HawkEye 360; GPS; miniature CubeSats for education and research; and military/defense satellites.

Loading next visibility...
Identifier
40012, 2014-033C
Orbit
SSO
Country
Flag of ITIT
Related business
Manufacturer
GAUSS SrI
Mission
Operational Amateur Technology
Bus & Motor
UNISAT, Unknown motor
Mass
26 kg wet, ~19 kg dry
Launch date (UTC)
2014-06-19 (11 years ago)
Launch vehicle
DNEPR
Launch site
Orenburg, Russia (OREN)
Object type
Payload
Rocket body
Debris
Shape & HBR
Box + 4 Pan, 0.5 m
Radar Cross Section
0.238 m², Medium (>0.1 m² and < 1m²)

Expand to show TLE details & history
Last TLE update: 5 hours ago

TLE from 5 hours ago
0 UNISAT 6
1 40012U 14033C   25288.85723837  .00005970  00000-0  67219-3 0  9995
2 40012  97.7583  81.6696 0047461 152.0646 208.3132 14.86188614609843
Epoch: 2025-10-15T20:34Z
TLE epoch observation values (Epoch: 2025-10-15T20:34:25.395Z)
Latitude
-0.00009°
Longitude
108.4385°
Altitude
642.131 km
Speed
7.521 km/s
True Right ascension
05h 26m 40s
True Declination
0° 00' 00"
Sunlit
Object was in full shadow at epoch
Visualization orbit readout
Latitude
Unknown
Longitude
Unknown
Altitude
Unknown
Speed
Unknown
Apparent Right ascension
Unknown
Apparent Declination
Unknown
Sunlit
N/A
Visualization observer readout
Local Sidereal Time
20:09:54
Azimuth
Unknown
Elevation
Unknown
Doppler factor
Unknown
Orbital elements
Apogee altitude
640.035 km
Perigee altitude
573.732 km
Semi-major axis
6,985.021 km
Eccentricity
0.00475
Inclination
97.7583°
RAAN
81.6696°
Arg. of periapsis
152.0646°
True anomaly
208.05659°
Mean anomaly
208.3132°
Eccentric anomaly
208.18476°
Mean motion
3.71785 °/min
Orbital period
96.83 mins
BSTAR
0.00067219
Loading maneuver chart data...
Computing Atmospheric mass density...
Loading historical data...
Loading historical data...
Loading historical data...
Loading historical data...
Loading historical data...
Loading historical data...
Loading historical data...

Documentation

Showing up to 5 results
|